If you wish to contribute or participate in the discussions about articles you are invited to join SKYbrary as a registered user

 Actions

Annecy-Haute-Savoie-Mont Blanc Airport

From SKYbrary Wiki

LFLP
Airport
ICAO: LFLP – IATA: NCY
Summary
Name Annecy-Haute-Savoie-Mont Blanc Airport
Region Europe
Territory France FR.gif
Location , Rhone-Alpes
Serving Annecy
Elevation 463.601 m
1,521 ft
1,521 ft463.601 m
Type medium airport
Coordinates 45° 55' 45.24" N, 6° 5' 55.55" E
Runways
Designator Length Width Surface ROPS
4/22 1630 m5,347.769 ft
30 m98.425 ft
ASP yes/yes


METAR
Observation LFLP 222330Z AUTO 01004KT 340V040 9999 FEW029 17/14 Q1024
Station ANNECY/MEYTHET
Date/Time 22 August 2019 23:30:00
Wind direction 10°
Wind speed 04 kts
Lowest cloud amount few clouds
Temperature 17°C
Dew point 14°C
Humidity 82%
QNH 1024 hPa
Weather condition n/a